This is the latest recevied weather packets stored in our database for station/object K6FAK-13. If no packets are shown the sender has not sent any weather packets the latest 10 day(s).
| Time | Temp. | Humidity | Pressure | Rain* | Wind** | Luminosity | Snow |
|---|---|---|---|---|---|---|---|
| 1777385827 | 10° C | 89% | 1021.8 hPa | 0 mm | - | 42 W/m² | - |
| 1777385221 | 9.44° C | 91% | 1022 hPa | 0 mm | - | 35 W/m² | - |
| 1777384615 | 8.89° C | 92% | 1021.8 hPa | 0 mm | - | 32 W/m² | - |
| 1777384315 | 8.33° C | 93% | 1021.8 hPa | 0 mm | - | 28 W/m² | - |
| 1777384010 | 8.33° C | 93% | 1021.6 hPa | 0 mm | - | 23 W/m² | - |
| 1777383404 | 8.33° C | 93% | 1021.6 hPa | 0 mm | - | 11 W/m² | - |
| 1777383099 | 8.33° C | 93% | 1021.6 hPa | 0 mm | - | 9 W/m² | - |
| 1777382796 | 8.33° C | 93% | 1021.2 hPa | 0 mm | - | 5 W/m² | - |
| 1777382492 | 8.33° C | 93% | 1021.3 hPa | 0 mm | - | 3 W/m² | - |
| 1777382188 | 8.33° C | 93% | 1021.3 hPa | 0 mm | - | 1 W/m² | - |
| 1777381885 | 8.33° C | 93% | 1021.3 hPa | 0 mm | - | 0 W/m² | - |
| 1777381583 | 8.89° C | 92% | 1021.4 hPa | 0 mm | - | 0 W/m² | - |
| 1777380673 | 8.89° C | 91% | 1020.9 hPa | 0 mm | - | 0 W/m² | - |
| 1777380066 | 8.89° C | 91% | 1021.1 hPa | 0 mm | - | 0 W/m² | - |
| 1777379152 | 8.89° C | 92% | 1021 hPa | 0 mm | - | 0 W/m² | - |
| 1777378848 | 8.89° C | 92% | 1020.9 hPa | 0 mm | - | 0 W/m² | - |
| 1777378544 | 8.89° C | 92% | 1020.9 hPa | 0 mm | - | 0 W/m² | - |
| 1777378241 | 8.89° C | 92% | 1020.8 hPa | 0 mm | - | 0 W/m² | - |
| 1777377939 | 8.89° C | 93% | 1020.8 hPa | 0 mm | - | 0 W/m² | - |
| 1777377334 | 8.89° C | 93% | 1020.8 hPa | 0 mm | - | 0 W/m² | - |
| 1777376426 | 8.89° C | 93% | 1020.8 hPa | 0 mm | - | 0 W/m² | - |
| 1777376121 | 8.89° C | 93% | 1020.7 hPa | 0 mm | - | 0 W/m² | - |
| 1777375212 | 8.89° C | 92% | 1020.8 hPa | 0 mm | - | 0 W/m² | - |
| 1777374300 | 9.44° C | 92% | 1020.7 hPa | 0 mm | - | 0 W/m² | - |
| 1777372475 | 9.44° C | 93% | 1020.6 hPa | 0 mm | - | 0 W/m² | - |
* Rain latest hour (hover to see other rain measurements)
** Current wind speed in m/s (hover to see current wind gust speed)